USA 167

Last updated on Sun Jun 21 2026 00:03:03 GMT+0000 (Coordinated Universal Time)

1 27691U 03008A 26171.39171111 -.00000006 00000+0 00000+0 0 9992 2 27691 10.9686 43.3827 0003974 314.8643 289.6742 1.00272738 6808
UTC large
Height (km)
Speed (km/s)
/
Latitude / Longitude
Inclination (degrees)
Orbital Period (minutes)
Azimuth
Elevation
Range (km)
Doppler Factor

Next 0 passes for location: London (51.5072 / 0.1276)

No passes found over London.
USA 167